2023/07/26 00:00:00, 0.0,22.6
2023/07/26 00:10:00, 0.0,22.6
2023/07/26 00:20:00, 0.0,22.2
2023/07/26 00:30:00, 0.0,22.3
2023/07/26 00:40:00, 0.0,22.4
2023/07/26 00:50:00, 0.0,22.2
2023/07/26 01:00:00, 0.0,22.6
2023/07/26 01:10:00, 0.0,22.3
2023/07/26 01:20:00, 0.0,22.1
2023/07/26 01:30:00, 0.0,22.2
2023/07/26 01:40:00, 0.0,22.1
2023/07/26 01:50:00, 0.0,21.9
2023/07/26 02:00:00, 0.0,22.3
2023/07/26 02:10:00, 0.0,21.9
2023/07/26 02:20:00, 0.0,22.3
2023/07/26 02:30:00, 0.0,22.2
2023/07/26 02:40:00, 0.0,22.3
2023/07/26 02:50:00, 0.0,22.2
2023/07/26 03:00:00, 0.0,21.9
2023/07/26 03:10:00, 0.0,21.7
2023/07/26 03:20:00, 0.0,21.6
2023/07/26 03:30:00, 0.0,21.6
2023/07/26 03:40:00, 0.0,21.9
2023/07/26 03:50:00, 0.0,21.5
2023/07/26 04:00:00, 0.0,21.9
2023/07/26 04:10:00, 0.0,22.1
2023/07/26 04:20:00, 0.0,21.9
2023/07/26 04:30:00, 0.0,21.5
2023/07/26 04:40:00, 0.0,21.5
2023/07/26 04:50:00, 0.0,21.5
2023/07/26 05:00:00, 0.0,21.9
2023/07/26 05:10:00, 0.1,21.4
2023/07/26 05:20:00, 0.1,21.6
2023/07/26 05:30:00, 0.1,21.9
2023/07/26 05:40:00, 0.1,21.8
2023/07/26 05:50:00, 0.1,22.2
2023/07/26 06:00:00, 0.0,22.3
2023/07/26 06:10:00, 0.0,22.4
2023/07/26 06:20:00, 0.0,22.6
2023/07/26 06:30:00, 0.0,22.8
2023/07/26 06:40:00, 0.0,23.4
2023/07/26 06:50:00, 0.0,23.8
2023/07/26 07:00:00, 0.0,24.2
2023/07/26 07:10:00, 0.0,24.7
2023/07/26 07:20:00, 0.0,25.7
2023/07/26 07:30:00, 0.0,26.1
2023/07/26 07:40:00, 0.0,27.2
2023/07/26 07:50:00, 0.0,27.2
2023/07/26 08:00:00, 0.0,28.3
2023/07/26 08:10:00, 0.0,28.7
2023/07/26 08:20:00, 0.0,29.6
2023/07/26 08:30:00, 0.0,30.0
2023/07/26 08:40:00, 0.0,30.6
2023/07/26 08:50:00, 0.0,31.0
2023/07/26 09:00:00, 0.0,32.8
2023/07/26 09:10:00, 0.0,32.7
2023/07/26 09:20:00, 0.0,33.2
2023/07/26 09:30:00, 0.0,34.8
2023/07/26 09:40:00, 0.0,34.4
2023/07/26 09:50:00, 0.0,35.3
2023/07/26 10:00:00, 0.0,36.0
2023/07/26 10:10:00, 0.0,36.3
2023/07/26 10:20:00, 0.0,36.3
2023/07/26 10:30:00, 0.0,36.0
2023/07/26 10:40:00, 0.0,35.6
2023/07/26 10:50:00, 0.0,35.9
2023/07/26 11:00:00, 0.0,36.4
2023/07/26 11:10:00, 0.0,36.4
2023/07/26 11:20:00, 0.0,36.0
2023/07/26 11:30:00, 0.0,36.5
2023/07/26 11:40:00, 0.0,36.7
2023/07/26 11:50:00, 0.0,36.5
2023/07/26 12:00:00, 0.0,36.4
2023/07/26 12:10:00, 0.0,36.6
2023/07/26 12:20:00, 0.0,36.0
2023/07/26 12:30:00, 0.0,35.6
2023/07/26 12:40:00, 0.3,35.8
2023/07/26 12:50:00, 0.0,35.3
2023/07/26 13:00:00, 0.1,35.4
2023/07/26 13:10:00, 0.0,36.2
2023/07/26 13:20:00, 0.0,35.7
2023/07/26 13:30:00, 0.6,35.4
2023/07/26 13:40:00, 0.4,35.7
2023/07/26 13:50:00, 0.0,35.6
2023/07/26 14:00:00, 0.2,34.8
2023/07/26 14:10:00, 0.2,34.7
2023/07/26 14:20:00, 0.0,34.8
2023/07/26 14:30:00, 0.0,35.1
2023/07/26 14:40:00, 0.0,35.0
2023/07/26 14:50:00, 0.0,35.0
2023/07/26 15:00:00, 0.0,35.2
2023/07/26 15:10:00, 0.7,35.2
2023/07/26 15:20:00, 0.3,35.1
2023/07/26 15:30:00, 0.0,35.6
2023/07/26 15:40:00, 0.3,34.9
2023/07/26 15:50:00, 0.0,35.4
2023/07/26 16:00:00, 0.0,35.5
2023/07/26 16:10:00, 0.0,35.7
2023/07/26 16:20:00, 0.0,35.6
2023/07/26 16:30:00, 0.0,35.0
2023/07/26 16:40:00, 0.0,34.8
2023/07/26 16:50:00, 0.0,35.3
2023/07/26 17:00:00, 0.0,35.0
2023/07/26 17:10:00, 0.0,35.1
2023/07/26 17:20:00, 0.0,35.4
2023/07/26 17:30:00, 0.0,35.0
2023/07/26 17:40:00, 0.0,34.7
2023/07/26 17:50:00, 0.0,33.7
2023/07/26 18:00:00, 0.0,34.3
2023/07/26 18:10:00, 0.0,33.7
2023/07/26 18:20:00, 0.0,32.9
2023/07/26 18:30:00, 0.0,32.1
2023/07/26 18:40:00, 0.0,31.8
2023/07/26 18:50:00, 0.0,29.3
2023/07/26 19:00:00, 0.0,28.8
2023/07/26 19:10:00, 0.0,27.5
2023/07/26 19:20:00, 0.0,26.8
2023/07/26 19:30:00, 0.0,26.6
2023/07/26 19:40:00, 0.0,26.5
2023/07/26 19:50:00, 0.0,26.2
2023/07/26 20:00:00, 0.0,25.7
2023/07/26 20:10:00, 0.0,25.5
2023/07/26 20:20:00, 0.0,25.4
2023/07/26 20:30:00, 0.0,25.3
2023/07/26 20:40:00, 0.0,25.4
2023/07/26 20:50:00, 0.0,25.1
2023/07/26 21:00:00, 0.0,25.3
2023/07/26 21:10:00, 0.0,25.0
2023/07/26 21:20:00, 0.0,24.8
2023/07/26 21:30:00, 0.0,24.7
2023/07/26 21:40:00, 0.0,24.4
2023/07/26 21:50:00, 0.0,24.4
2023/07/26 22:00:00, 0.0,24.5
2023/07/26 22:10:00, 0.0,24.5
2023/07/26 22:20:00, 0.0,24.8
2023/07/26 22:30:00, 0.0,24.8
2023/07/26 22:40:00, 0.0,24.5
2023/07/26 22:50:00, 0.0,24.9
2023/07/26 23:00:00, 0.0,24.5
2023/07/26 23:10:00, 0.0,24.5
2023/07/26 23:20:00, 0.0,24.3
2023/07/26 23:30:00, 0.0,24.4
2023/07/26 23:40:00, 0.0,24.4
2023/07/26 23:50:00, 0.0,24.0
